www.pogodaiklimat.ru

Погода и климат >> Архив погоды >> Индия >> Jaisalmer


ПОГОДА в Jaisalmer

  • Прогноз погоды в Jaisalmer
  • Монитор погоды в Jaisalmer
  • Климат города

АРХИВ ПОГОДЫ в Jaisalmer

Время (UTC), дата Ветер
(напр.,м/с)
 
Видим.   Явления Облачность Т
(С)
Тd
(С)
f
(%)
Тe
(С)
Тes
(С)
Комфортность P
(гПа)
Po
(гПа)
Тmin
(С)
Tmax
(С)
R
(мм)
R24
(мм)
S
(см)
00 19.02 штиль 0 4000 м ясно +20.0 +3.0 32 +20 +20 1008.3 1008.0
03 19.02 штиль 0 4000 м ясно +17.4 +5.5 45 +17 +20 1010.4 1010.0 +16.9 +32.4
06 19.02 СЗ 1 4000 м ясно +28.2 +6.4 25 +27 +42 жарко 1010.7 1011.0
09 19.02 СВ 1 4000 м 5/0
[Ci sp]
+33.4 +6.8 19 +31 +44 жарко 1007.8 1008.0
12 19.02 СВ 1 4000 м 6/0
[Ci sp]
+33.4 +6.1 18 +31 +32 жарко 1007.2 1007.0 +34.6
15 19.02 С 1 4000 м 3/0
[Ci sp]
+27.4 +5.4 25 +26 +26 жарко 1009.3 1009.0
18 19.02 штиль 0 4000 м ясно +23.6 +4.2 28 +23 +23 комфорт 1010.1 1010.0
21 19.02 штиль 0 4000 м ясно +21.6 +4.5 33 +22 +22 комфорт 1009.8 1010.0
00 20.02 ЮЗ 1 4000 м ясно +20.6 +3.4 32 +23 +23 комфорт 1008.9 1009.0
03 20.02 штиль 0 4000 м 3/0
[Ci fib]
+20.2 +6.8 42 +21 +23 комфорт 1010.3 1010.0 +17.6 +34.6
06 20.02 З 1 4000 м ясно +32.4 +4.7 18 +30 +45 жарко 1010.0 1010.0
09 20.02 ЮЗ 2 4000 м 3/0
[Ci fib]
+35.4 +6.3 17 +33 +44 жарко 1007.5 1008.0
12 20.02 ЮЗ 1 4000 м 9/4 1050 м
[Sc As op]
+33.6 +7.1 19 +32 +32 жарко 1006.7 1007.0 +36.2
15 20.02 ЮЗ 1 4000 м 5/0
[Ac trans Ci sp]
+29.8 +6.1 22 +28 +28 жарко 1007.6 1008.0
18 20.02 штиль 0 4000 м 3/0
[Ci sp]
+26.0 +8.2 32 +26 +26 жарко 1008.5 1009.0
21 20.02 штиль 0 4000 м ясно +24.0 +9.3 39 +25 +25 комфорт 1008.3 1008.0
00 21.02 Ю 1 4000 м ясно +21.0 +8.5 45 +24 +24 комфорт 1007.7 1008.0
03 21.02 штиль 0 4000 м ясно +20.0 +9.5 51 +21 +24 комфорт 1009.9 1010.0 +18.8 +36.2
06 21.02 ЮЗ 1 4000 м ясно +29.6 +11.3 32 +30 +45 жарко 1009.6 1010.0
09 21.02 ЮЗ 3 4000 м ясно +35.0 +8.6 20 +33 +43 жарко 1006.8 1007.0
12 21.02 ЮЗ 1 4000 м ясно +33.8 +4.2 16 +31 +32 жарко 1005.4 1005.0 +35.6
15 21.02 ЮЗ 1 4000 м ясно +27.4 +4.1 22 +26 +26 жарко 1006.7 1007.0
18 21.02 З 2 4000 м ясно +25.4 +7.8 33 +26 +26 жарко 1007.7 1008.0
21 21.02 З 1 4000 м ясно +23.2 +9.1 41 +25 +25 комфорт 1007.6 1008.0
00 22.02 штиль 0 4000 м ясно +19.8 +8.3 47 +21 +21 комфорт 1007.3 1007.0
03 22.02 Ю 1 2000 м мгла ясно +18.6 +10.0 57 +20 +23 1008.7 1009.0 +17.4 +35.6
06 22.02 штиль 0 4000 м ясно +30.0 +10.9 31 +30 +47 жарко 1008.1 1008.0
09 22.02 ЮЗ 1 4000 м 3/0
[Ci fib]
+33.4 +4.0 16 +31 +44 жарко 1005.2 1005.0
12 22.02 СЗ 1 4000 м 8/0
[Ac trans Ci sp]
+33.2 +8.8 22 +32 +33 жарко 1004.3 1004.0 +34.7
15 22.02 С 1 4000 м 6/0
[Ac trans Ci sp]
+29.4 +8.9 28 +29 +29 жарко 1006.1 1006.0
18 22.02 Ю 1 4000 м 3/0
[Ci fib]
+25.4 +8.9 35 +26 +26 жарко 1007.2 1007.0
21 22.02 штиль 0 4000 м ясно +23.4 +8.4 38 +25 +25 комфорт 1006.8 1007.0
00 23.02 Ю 1 4000 м ясно +22.0 +9.9 46 +24 +24 комфорт 1006.4 1006.0
03 23.02 штиль 0 2000 м мгла 8/3 900 м
[Sc Ac trans Ci fib]
+21.4 +11.8 54 +23 +25 комфорт 1007.8 1008.0 +20.8 +34.7
06 23.02 Ю 1 4000 м 8/1 900 м
[Sc Ac trans Ci fib]
+28.6 +14.4 42 +31 +39 жарко 1007.1 1007.0
09 23.02 З 4 4000 м 6/1 1050 м
[Cu hum Ac trans Ci sp]
+33.6 +8.4 21 +32 +37 жарко 1005.2 1005.0
12 23.02 З 5 4000 м 9/4 900 м
[Sc Ac trans Ci sp]
+31.6 +8.2 23 +30 +31 жарко 1004.6 1005.0 +34.3
15 23.02 штиль 0 4000 м 5/3 900 м
[Sc Ac trans]
+25.8 +12.3 43 +27 +27 жарко 1005.6 1006.0
18 23.02 Ю 1 4000 м 3/0
[Ci sp]
+22.4 +10.4 47 +24 +24 комфорт 1006.8 1007.0
21 23.02 штиль 0 4000 м 3/0
[Ci sp]
+21.2 +10.2 49 +23 +23 комфорт 1006.4 1006.0
00 24.02 С 6 4000 м ясно +17.6 +12.6 72 +17 +17 1010.2 1010.0
03 24.02 СВ 4 4000 м ясно +17.0 +10.7 66 +17 +18 1011.3 1011.0 +16.0 +34.3
06 24.02 СВ 3 4000 м 1/0
[Ci fib]
+24.0 +10.7 43 +25 +36 комфорт 1012.4 1012.0
09 24.02 СВ 3 4000 м 1/0
[Ci fib]
+28.0 +11.3 35 +29 +38 жарко 1009.5 1010.0
12 24.02 СВ 3 4000 м 6/1 450 м
[Sc Ac trans Ci sp]
+28.2 +9.6 31 +28 +29 жарко 1009.2 1009.0 +29.0
15 24.02 С 1 4000 м 9/4 900 м
[Sc Ac trans]
+25.0 +10.7 41 +26 +26 жарко 1011.0 1011.0
18 24.02 СВ 2 4000 м ясно +22.8 +10.0 44 +25 +25 комфорт 1012.6 1013.0
00 25.02 СВ 2 4000 м ясно +17.8 +13.2 74 +18 +18 1014.2 1014.0
03 25.02 В 2 2000 м мгла ясно +17.4 +13.1 76 +18 +20 1016.2 1016.0 +15.8 +29.0
06 25.02 СВ 3 4000 м ясно +24.8 +12.3 46 +27 +37 жарко 1016.4 1016.0
09 25.02 СВ 4 4000 м ясно +29.6 +11.3 32 +30 +38 жарко 1014.0 1014.0
12 25.02 СВ 4 4000 м 3/0
[Ci sp]
+29.2 +9.1 28 +29 +30 жарко 1012.4 1012.0 +30.4
15 25.02 СВ 1 4000 м 1/0
[Ci fib]
+25.0 +8.6 35 +25 +25 комфорт 1013.8 1014.0
18 25.02 С 1 4000 м ясно +22.0 +8.9 43 +23 +23 комфорт 1014.8 1015.0
21 25.02 С 1 4000 м ясно +21.4 +8.1 42 +22 +22 комфорт 1014.6 1015.0

 

Местоположение метеостанции Jaisalmer (Rajasthan, Индия): широта 26.90 долгота 70.92 высота над уровнем моря 231 м.

В архиве по умолчанию представлена погода в Jaisalmer за последнюю неделю. Архивные данные за месяц целиком и за предыдущие месяцы, начиная с января 2011 года, Вы можете получить, выбрав интересующий диапазон дат из раскрывающегося списка и нажав кнопку "Ввод!".

Внимание! Время в таблицах - всемирное. Для получения местного времени необходимо прибавить поправку, которая в Jaisalmer равна 5.5 ч.

Смотрите также архив погоды в соседних городах и на ближайших метеорологических станциях:

Погода в Barmer (Rajasthan, Индия) (136 км)
Погода в Chhor (Пакистан) (191 км)
Погода в Khanpur (Пакистан) (196 км)
Погода в Rohri (Пакистан) (217 км)
Погода в Jodhpur (Rajasthan, Индия) (219 км)
Погода в Nawabshah (Пакистан) (264 км)
Погода в Bikaner (Rajasthan, Индия) (265 км)
Погода в Pad Idan (Пакистан) (277 км)
Погода в Jacobabad (Пакистан) (287 км)
Погода в Bahawalpur (Пакистан) (291 км)

Пояснения к столбцам:

Ветер - указаны скорость ветра в м/с - средняя за 10 мин, порывы в срок и между сроками (в фигурных скобках) и направление, откуда дует ветер: С - северный, СВ - северо-восточный, В - восточный, ЮВ - юго-восточный, Ю - южный, ЮЗ - юго-западный, З - западный, СЗ - северо-западный.
Видимость - горизонтальная дальность видимости в метрах или километрах. При видимости от 1 до 10 км при отсутствии осадков обычно наблюдается дымка, при ухудшении видимости до 1 км и менее - туман. В сухую погоду видимость может ухудшаться дымом, пылью или мглою.
Явления - указаны атмосферные явления, наблюдавшиеся в срок или в последний час перед сроком; фигурными скобками обозначены явления, наблюдавшиеся между сроками (за 1-3 часа до срока); квадратными скобками обозначены град или гололедные отложения с указанием их диаметра в мм.
Облачность - указаны через наклонную черту общая и нижняя облачность в баллах и высота нижней границы облаков в метрах; квадратными скобками обозначены формы облаков: Ci - перистые, Cs - перисто-слоистые, Cc - перисто-кучевые, Ac - высококучевые, As - высокослоистые, Sc - слоисто-кучевые, Ns - слоисто-дождевые, Cu - кучевые, Cb - кучево-дождевые. Подробнее классификацию облаков см. в Атласе облаков (PDF).
T - Температура воздуха - температура, измеренная на высоте 2 м над землей.
Td - Температура точки росы - температура, при понижении до которой содержащийся в воздухе водяной пар достигнет насыщения.
f - Относительная влажность воздуха - влажноcть воздуха, измеренная на высоте 2 м над землей.
Te - Эффективная температура - температура, которую ощущает одетый по сезону человек в тени. Характеристика душности погоды. При расчете учитывается влияние влажности воздуха и скорости ветра на теплоощущения человека.
Tes - Эффективная температура на солнце - температура, которую ощущает человек, с поправкой на солнечный нагрев. Характеристика знойности погоды. Зависит от высоты солнца над горизонтом, облачности и скорости ветра. Ночью, в пасмурную погоду, а также при ветре 12 м/с и более поправка равна нулю.
P - Атмосферное давление - приведенное к уровню моря атмосферное давление.
Po - Атмосферное давление - измеренное на уровне метеостанции атмосферное давление.
Tmin - Минимальная температура - минимум температуры воздуха на высоте 2 м над землей.
Tmax - Максимальная температура - максимум температуры воздуха на высоте 2 м над землей.
R - Количество осадков - Количество выпавших осадков за период времени, мм. При наведении курсора мыши на число - период времени, за который выпало указанное количество осадков.
R24 - Количество осадков - Количество выпавших осадков за 24 часа, мм.
S - Снежный покров - Высота снежного покрова, см. При наведении курсора мыши на число - состояние снежного покрова и степень покрытия местности в баллах.